COSMOS 2251 DEB, 34313

Orbit data source: Space-Track

COSMOS 2251 DEB, 34313 is space debris in LEO originally from a launch on Wed, 16 Jun 1993 UTC launched from the Plesetsk Missile And Space Complex (PKMTR). The debris from Iridium 33, an American commercial communications satellite, has been tracked extensively since its accidental collision with the defunct Russian satellite Cosmos 2251 in 2009. This event, occurring at high speed in low Earth orbit (LEO), generated thousands of pieces of space debris, significantly increasing the risk of further collisions. The Iridium 33 debris cloud has impacted space traffic management and orbital debris mitigation strategies, making it a subject of ongoing study in space situational awareness.

Loading next visibility...
Identifier
34313, 1993-036NK
Orbit
LEO
Country
Flag of CISCIS
Related business
Manufacturer
Unknown
Mission
Spacecraft
Bus & Motor
Unknown
Mass
Unknown
Launch date (UTC)
1993-06-16 (32 years ago)
Launch vehicle
Unknown
Launch site
Plesetsk Missile And Space Complex (PKMTR)
Object type
Payload
Rocket body
Debris
Shape & HBR
Unknown shape, 0.1 m
Radar Cross Section
Small (<0.1 m²)

Expand to show TLE details & history
Last TLE update: 13 hours ago

TLE from 13 hours ago
0 COSMOS 2251 DEB
1 34313U 93036NK  25312.63976164  .00094016  00000-0  52676-2 0  9998
2 34313  73.9784  16.7788 0010009 164.7678 195.3818 15.12885763885484
Epoch: 2025-11-08T15:21Z
TLE epoch observation values (Epoch: 2025-11-08T15:21:15.405Z)
Latitude
-0.00011°
Longitude
98.3981°
Altitude
536.771 km
Speed
7.591 km/s
True Right ascension
01h 07m 06s
True Declination
0° 00' 00"
Sunlit
Object was in full shadow at epoch
Visualization orbit readout
Latitude
Unknown
Longitude
Unknown
Altitude
Unknown
Speed
Unknown
Apparent Right ascension
Unknown
Apparent Declination
Unknown
Sunlit
N/A
Visualization observer readout
Local Sidereal Time
00:55:12
Azimuth
Unknown
Elevation
Unknown
Doppler factor
Unknown
Orbital elements
Apogee altitude
531.859 km
Perigee altitude
518.04 km
Semi-major axis
6,903.086 km
Eccentricity
0.001
Inclination
73.9784°
RAAN
16.7788°
Arg. of periapsis
164.7678°
True anomaly
195.35141°
Mean anomaly
195.3818°
Eccentric anomaly
195.3666°
Mean motion
3.78424 °/min
Orbital period
95.13 mins
BSTAR
0.0052676

Documentation

Showing up to 5 results
|